| time (UTC) | temp F | wind direction | speed MPH | gust MPH | rain 1hr in | rain 24hr in | rain mn in | humidity % | barometer mb |
| 20260504045030 | 47 | 294 | 1.0 | 3.0 | 0.00 | 0.00 | 0.00 | 57 | 1004.7 |
| 20260504044029 | 45 | 317 | 3.0 | 4.0 | 0.00 | 0.00 | 0.00 | 60 | 1004.7 |
| 20260504043027 | 46 | 312 | 1.0 | 3.0 | 0.00 | 0.00 | 0.00 | 57 | 1004.8 |
| 20260504042029 | 45 | 288 | 1.0 | 2.0 | 0.00 | 0.00 | 0.00 | 57 | 1004.9 |
| 20260504041027 | 45 | 324 | 2.0 | 2.0 | 0.00 | 0.00 | 0.00 | 58 | 1005.0 |
| 20260504040026 | 44 | 306 | 2.0 | 2.0 | 0.00 | 0.00 | 0.00 | 58 | 1005.0 |
| 20260504035025 | 44 | 316 | 2.0 | 3.0 | 0.00 | 0.00 | 0.00 | 59 | 1005.1 |
| 20260504034024 | 44 | 311 | 2.0 | 3.0 | 0.00 | 0.00 | 0.00 | 59 | 1005.1 |
| 20260504033023 | 44 | 301 | 2.0 | 3.0 | 0.00 | 0.00 | 0.00 | 58 | 1005.2 |
| 20260504032022 | 44 | 314 | 2.0 | 3.0 | 0.00 | 0.00 | 0.00 | 58 | 1005.2 |
| 20260504031020 | 43 | 303 | 2.0 | 5.0 | 0.00 | 0.00 | 0.00 | 59 | 1005.3 |
| 20260504030041 | 43 | 307 | 3.0 | 6.0 | 0.00 | 0.00 | 0.00 | 59 | 1005.5 |
| 20260504025020 | 43 | 308 | 3.0 | 6.0 | 0.00 | 0.00 | 0.00 | 58 | 1005.4 |
| 20260504024019 | 43 | 316 | 4.0 | 6.0 | 0.00 | 0.00 | 0.00 | 56 | 1005.4 |
| 20260504023038 | 43 | 325 | 4.0 | 6.0 | 0.00 | 0.00 | 0.00 | 54 | 1005.5 |
| 20260504022016 | 44 | 326 | 3.0 | 5.0 | 0.00 | 0.00 | 0.00 | 52 | 1005.6 |
| 20260504021045 | 45 | 336 | 4.0 | 5.0 | 0.00 | 0.00 | 0.00 | 51 | 1005.6 |
| 20260504020044 | 45 | 323 | 4.0 | 6.0 | 0.00 | 0.00 | 0.00 | 52 | 1005.8 |
| 20260504015043 | 45 | 322 | 4.0 | 6.0 | 0.00 | 0.00 | 0.00 | 51 | 1005.9 |
| 20260504014042 | 45 | 313 | 5.0 | 7.0 | 0.00 | 0.00 | 0.00 | 50 | 1006.1 |
| 20260504013121 | 45 | 317 | 5.0 | 8.0 | 0.00 | 0.00 | 0.00 | 49 | 1006.1 |
| 20260504012042 | 46 | 316 | 5.0 | 9.0 | 0.00 | 0.00 | 0.00 | 49 | 1006.2 |
| 20260504011041 | 46 | 318 | 4.0 | 8.0 | 0.00 | 0.00 | 0.00 | 49 | 1006.2 |
| 20260504010040 | 46 | 329 | 5.0 | 8.0 | 0.00 | 0.00 | 0.00 | 49 | 1006.2 |
| 20260504005038 | 46 | 335 | 5.0 | 9.0 | 0.00 | 0.00 | 0.00 | 49 | 1006.2 |
| 20260504004037 | 46 | 331 | 4.0 | 9.0 | 0.00 | 0.00 | 0.00 | 49 | 1006.2 |
| 20260504003036 | 47 | 321 | 4.0 | 7.0 | 0.00 | 0.00 | 0.00 | 49 | 1006.3 |
| 20260504002035 | 47 | 314 | 5.0 | 8.0 | 0.00 | 0.00 | 0.00 | 49 | 1006.3 |
| 20260504001035 | 47 | 316 | 5.0 | 8.0 | 0.00 | 0.00 | 0.00 | 50 | 1006.4 |
| 20260504000114 | 47 | 324 | 5.0 | 8.0 | 0.00 | 0.00 | 0.00 | 47 | 1006.5 |
| 20260503235033 | 48 | 329 | 6.0 | 10.0 | 0.00 | 0.00 | 0.00 | 46 | 1006.5 |
| 20260503234052 | 48 | 325 | 5.0 | 10.0 | 0.00 | 0.00 | 0.00 | 45 | 1006.5 |
| 20260503233030 | 48 | 317 | 5.0 | 10.0 | 0.00 | 0.00 | 0.00 | 45 | 1006.6 |
| 20260503232029 | 49 | 318 | 4.0 | 10.0 | 0.00 | 0.00 | 0.00 | 46 | 1006.6 |
| 20260503231028 | 49 | 318 | 5.0 | 8.0 | 0.00 | 0.00 | 0.00 | 46 | 1006.6 |
| 20260503230027 | 49 | 314 | 5.0 | 8.0 | 0.00 | 0.00 | 0.00 | 47 | 1006.7 |
| 20260503225046 | 49 | 307 | 4.0 | 7.0 | 0.00 | 0.00 | 0.00 | 47 | 1006.8 |
| 20260503224024 | 50 | 309 | 4.0 | 7.0 | 0.00 | 0.00 | 0.00 | 48 | 1006.8 |
| 20260503223043 | 50 | 308 | 4.0 | 6.0 | 0.00 | 0.00 | 0.00 | 49 | 1006.8 |
| 20260503222025 | 50 | 317 | 4.0 | 7.0 | 0.00 | 0.00 | 0.00 | 49 | 1006.8 |
| 20260503221023 | 50 | 322 | 4.0 | 7.0 | 0.00 | 0.00 | 0.00 | 50 | 1006.8 |
| 20260503220022 | 51 | 312 | 4.0 | 7.0 | 0.00 | 0.00 | 0.00 | 50 | 1006.9 |
| 20260503215021 | 51 | 309 | 4.0 | 8.0 | 0.00 | 0.00 | 0.00 | 52 | 1007.0 |
| 20260503214020 | 51 | 306 | 4.0 | 8.0 | 0.00 | 0.00 | 0.00 | 52 | 1006.9 |
| 20260503213019 | 51 | 315 | 5.0 | 9.0 | 0.00 | 0.00 | 0.00 | 51 | 1007.0 |
| 20260503212018 | 51 | 328 | 5.0 | 9.0 | 0.00 | 0.00 | 0.00 | 52 | 1007.0 |
| 20260503211016 | 52 | 331 | 5.0 | 10.0 | 0.00 | 0.00 | 0.00 | 52 | 1006.9 |
| 20260503210045 | 52 | 329 | 4.0 | 9.0 | 0.00 | 0.00 | 0.00 | 57 | 1006.9 |
| 20260503205046 | 52 | 321 | 5.0 | 9.0 | 0.00 | 0.00 | 0.00 | 59 | 1006.9 |
| 20260503204105 | 52 | 317 | 3.0 | 6.0 | 0.00 | 0.00 | 0.00 | 64 | 1006.9 |
| 20260503203044 | 52 | 316 | 3.0 | 6.0 | 0.00 | 0.00 | 0.00 | 65 | 1006.9 |
| 20260503202043 | 52 | 313 | 3.0 | 6.0 | 0.00 | 0.00 | 0.00 | 66 | 1006.9 |
| 20260503201042 | 53 | 301 | 3.0 | 5.0 | 0.00 | 0.00 | 0.00 | 65 | 1007.0 |
| 20260503200101 | 53 | 284 | 3.0 | 5.0 | 0.00 | 0.00 | 0.00 | 65 | 1007.0 |
| 20260503195039 | 53 | 276 | 2.0 | 5.0 | 0.00 | 0.00 | 0.00 | 62 | 1007.0 |
| 20260503194038 | 54 | 266 | 3.0 | 5.0 | 0.00 | 0.00 | 0.00 | 61 | 1007.0 |
| 20260503193037 | 54 | 236 | 4.0 | 5.0 | 0.00 | 0.00 | 0.00 | 60 | 1007.0 |
| 20260503192036 | 54 | 239 | 4.0 | 5.0 | 0.00 | 0.00 | 0.00 | 61 | 1007.1 |
| 20260503191035 | 54 | 250 | 3.0 | 4.0 | 0.00 | 0.00 | 0.00 | 60 | 1007.1 |
| 20260503190034 | 54 | 252 | 3.0 | 4.0 | 0.00 | 0.00 | 0.00 | 61 | 1007.0 |
| 20260503185033 | 54 | 266 | 2.0 | 4.0 | 0.00 | 0.00 | 0.00 | 60 | 1007.0 |
| 20260503184052 | 54 | 269 | 2.0 | 3.0 | 0.00 | 0.00 | 0.00 | 60 | 1007.0 |
| 20260503183031 | 54 | 265 | 2.0 | 4.0 | 0.00 | 0.00 | 0.00 | 61 | 1007.0 |
| 20260503182030 | 54 | 264 | 2.0 | 4.0 | 0.00 | 0.00 | 0.00 | 61 | 1007.0 |
| 20260503181031 | 54 | 254 | 2.0 | 3.0 | 0.00 | 0.00 | 0.00 | 60 | 1007.0 |
| 20260503180029 | 55 | 268 | 1.0 | 3.0 | 0.00 | 0.00 | 0.00 | 61 | 1007.0 |
| 20260503175027 | 55 | 289 | 1.0 | 3.0 | 0.00 | 0.00 | 0.00 | 60 | 1006.9 |
| 20260503174026 | 55 | 288 | 2.0 | 3.0 | 0.00 | 0.00 | 0.00 | 60 | 1006.9 |
| 20260503173026 | 55 | 297 | 2.0 | 4.0 | 0.00 | 0.00 | 0.00 | 59 | 1006.8 |
| 20260503172025 | 55 | 320 | 2.0 | 6.0 | 0.00 | 0.00 | 0.00 | 59 | 1006.9 |
| 20260503171023 | 55 | 305 | 4.0 | 9.0 | 0.00 | 0.00 | 0.00 | 58 | 1006.9 |
| 20260503131032 | 59 | 318 | 8.0 | 14.0 | 0.00 | 0.00 | 0.00 | 48 | 1007.2 |
| 20260503081034 | 51 | 246 | 5.0 | 7.0 | 0.00 | 0.00 | 0.00 | 69 | 1006.9 |
| 20260503072030 | 51 | 289 | 3.0 | 6.0 | 0.00 | 0.00 | 0.00 | 69 | 1006.4 |
| 20260503071029 | 49 | 290 | 2.0 | 5.0 | 0.00 | 0.00 | 0.00 | 71 | 1006.3 |
| 20260503055020 | 47 | 313 | 3.0 | 5.0 | 0.00 | 0.00 | 0.00 | 75 | 1005.6 |
| 20260503054019 | 47 | 311 | 4.0 | 8.0 | 0.00 | 0.00 | 0.00 | 75 | 1005.4 |